contact:dominique.lefevre@mio.osupytheas.fr, maurice.libes@osupytheas.fr, didier.mallarino@osupytheas.fr
Project:EMSO http://www.emso-fr.org/EMSO-France
Depth: 2436.0 m
Title:EMSO Ligure Ouest : Data MII capteur MICROCAT
DateTime_Computer,Latitude,Longitude,Temperature,Conductivity,Pressure,DateTime_Instrument
DateTime_Computer,Latitude,Longitude,degC,S m-1,dbar,DateTime_Instrument
2019-10-28T00:00:55Z,42.805,6.029,13.3024,4.60003,2469.806,2019-10-28T02:01:22Z
2019-10-28T00:03:59Z,42.805,6.029,13.3004,4.59997,2469.844,2019-10-28T02:04:25Z
2019-10-28T00:07:02Z,42.805,6.029,13.2988,4.59996,2469.83,2019-10-28T02:07:28Z
2019-10-28T00:10:05Z,42.805,6.029,13.2998,4.59999,2469.844,2019-10-28T02:10:31Z
2019-10-28T00:13:08Z,42.805,6.029,13.2999,4.59999,2469.844,2019-10-28T02:13:35Z
2019-10-28T00:16:11Z,42.805,6.029,13.3010,4.60009,2469.83,2019-10-28T02:16:38Z
2019-10-28T00:19:15Z,42.805,6.029,13.3002,4.60004,2469.783,2019-10-28T02:19:41Z
2019-10-28T00:22:18Z,42.805,6.029,13.3027,4.59989,2469.806,2019-10-28T02:22:44Z
2019-10-28T00:25:21Z,42.805,6.029,13.3001,4.59990,2469.821,2019-10-28T02:25:48Z
2019-10-28T00:28:24Z,42.805,6.029,13.3018,4.59995,2469.821,2019-10-28T02:28:51Z
2019-10-28T00:31:28Z,42.805,6.029,13.2997,4.59991,2469.783,2019-10-28T02:31:54Z
2019-10-28T00:34:31Z,42.805,6.029,13.3029,4.59988,2469.806,2019-10-28T02:34:57Z
2019-10-28T00:37:34Z,42.805,6.029,13.2996,4.59994,2469.844,2019-10-28T02:38:00Z
2019-10-28T00:40:37Z,42.805,6.029,13.3009,4.59997,2469.773,2019-10-28T02:41:04Z
2019-10-28T00:43:40Z,42.805,6.029,13.2979,4.59986,2469.797,2019-10-28T02:44:07Z
2019-10-28T00:46:44Z,42.805,6.029,13.2998,4.59999,2469.821,2019-10-28T02:47:10Z
2019-10-28T00:49:47Z,42.805,6.029,13.2986,4.59996,2469.853,2019-10-28T02:50:13Z
2019-10-28T00:52:50Z,42.805,6.029,13.3004,4.59988,2469.806,2019-10-28T02:53:17Z
2019-10-28T00:55:53Z,42.805,6.029,13.2989,4.59994,2469.821,2019-10-28T02:56:20Z
2019-10-28T00:58:57Z,42.805,6.029,13.3009,4.59984,2469.783,2019-10-28T02:59:23Z
2019-10-28T01:02:00Z,42.805,6.029,13.2991,4.59988,2469.797,2019-10-28T03:02:26Z
2019-10-28T01:05:03Z,42.805,6.029,13.2996,4.59991,2469.737,2019-10-28T03:05:29Z
2019-10-28T01:08:06Z,42.805,6.029,13.2994,4.59983,2469.797,2019-10-28T03:08:33Z
2019-10-28T01:11:09Z,42.805,6.029,13.2985,4.59982,2469.821,2019-10-28T03:11:36Z
2019-10-28T01:14:13Z,42.805,6.029,13.3009,4.59986,2469.75,2019-10-28T03:14:39Z
2019-10-28T01:17:16Z,42.805,6.029,13.3000,4.59988,2469.773,2019-10-28T03:17:42Z
2019-10-28T01:20:19Z,42.805,6.029,13.2998,4.59987,2469.783,2019-10-28T03:20:45Z
2019-10-28T01:23:22Z,42.805,6.029,13.2995,4.59993,2469.797,2019-10-28T03:23:49Z
2019-10-28T01:26:25Z,42.805,6.029,13.2991,4.59988,2469.783,2019-10-28T03:26:52Z
2019-10-28T01:29:29Z,42.805,6.029,13.3001,4.59990,2469.76,2019-10-28T03:29:55Z
2019-10-28T01:32:32Z,42.805,6.029,13.3005,4.59986,2469.76,2019-10-28T03:32:58Z
2019-10-28T01:35:35Z,42.805,6.029,13.2994,4.59988,2469.797,2019-10-28T03:36:02Z
2019-10-28T01:38:38Z,42.805,6.029,13.2996,4.59983,2469.783,2019-10-28T03:39:05Z
2019-10-28T01:41:42Z,42.805,6.029,13.2987,4.59992,2469.797,2019-10-28T03:42:08Z
2019-10-28T01:44:45Z,42.805,6.029,13.2986,4.59994,2469.773,2019-10-28T03:45:11Z
2019-10-28T01:47:48Z,42.805,6.029,13.2988,4.59984,2469.783,2019-10-28T03:48:14Z
2019-10-28T01:50:51Z,42.805,6.029,13.2986,4.59984,2469.821,2019-10-28T03:51:18Z
2019-10-28T01:53:54Z,42.805,6.029,13.2987,4.59989,2469.773,2019-10-28T03:54:21Z
2019-10-28T01:56:58Z,42.805,6.029,13.2994,4.59992,2469.806,2019-10-28T03:57:24Z
2019-10-28T02:00:01Z,42.805,6.029,13.2996,4.59996,2469.783,2019-10-28T04:00:27Z
2019-10-28T02:03:04Z,42.805,6.029,13.3000,4.59987,2469.806,2019-10-28T04:03:31Z
2019-10-28T02:06:07Z,42.805,6.029,13.3009,4.59984,2469.797,2019-10-28T04:06:34Z
2019-10-28T02:09:11Z,42.805,6.029,13.2990,4.59983,2469.806,2019-10-28T04:09:37Z
2019-10-28T02:12:14Z,42.805,6.029,13.2991,4.59981,2469.773,2019-10-28T04:12:41Z
2019-10-28T02:15:17Z,42.805,6.029,13.2986,4.59981,2469.783,2019-10-28T04:15:44Z
2019-10-28T02:18:21Z,42.805,6.029,13.2984,4.59983,2469.806,2019-10-28T04:18:47Z
2019-10-28T02:21:24Z,42.805,6.029,13.2994,4.59986,2469.821,2019-10-28T04:21:50Z
2019-10-28T02:24:27Z,42.805,6.029,13.3003,4.59981,2469.821,2019-10-28T04:24:53Z
2019-10-28T02:27:30Z,42.805,6.029,13.2998,4.59978,2469.76,2019-10-28T04:27:57Z
2019-10-28T02:30:34Z,42.805,6.029,13.2983,4.59983,2469.783,2019-10-28T04:31:00Z
2019-10-28T02:33:37Z,42.805,6.029,13.2983,4.59988,2469.806,2019-10-28T04:34:03Z
2019-10-28T02:36:40Z,42.805,6.029,13.3004,4.59990,2469.83,2019-10-28T04:37:06Z
2019-10-28T02:39:43Z,42.805,6.029,13.2989,4.59983,2469.797,2019-10-28T04:40:10Z
2019-10-28T02:42:46Z,42.805,6.029,13.2986,4.59982,2469.853,2019-10-28T04:43:13Z
2019-10-28T02:45:50Z,42.805,6.029,13.2986,4.59982,2469.83,2019-10-28T04:46:16Z
2019-10-28T02:48:53Z,42.805,6.029,13.2976,4.59969,2469.806,2019-10-28T04:49:19Z
2019-10-28T02:51:56Z,42.805,6.029,13.2974,4.59979,2469.806,2019-10-28T04:52:22Z
2019-10-28T02:54:59Z,42.805,6.029,13.2979,4.59979,2469.83,2019-10-28T04:55:26Z
2019-10-28T02:58:02Z,42.805,6.029,13.2988,4.59973,2469.83,2019-10-28T04:58:29Z
2019-10-28T03:01:06Z,42.805,6.029,13.2989,4.59987,2469.844,2019-10-28T05:01:32Z
2019-10-28T03:04:09Z,42.805,6.029,13.2989,4.59981,2469.806,2019-10-28T05:04:35Z
2019-10-28T03:07:12Z,42.805,6.029,13.2987,4.59975,2469.844,2019-10-28T05:07:38Z
2019-10-28T03:10:15Z,42.805,6.029,13.2988,4.59976,2469.806,2019-10-28T05:10:42Z
2019-10-28T03:13:19Z,42.805,6.029,13.2988,4.59976,2469.83,2019-10-28T05:13:45Z
2019-10-28T03:16:22Z,42.805,6.029,13.2982,4.59986,2469.806,2019-10-28T05:16:48Z
2019-10-28T03:19:25Z,42.805,6.029,13.2985,4.59983,2469.83,2019-10-28T05:19:51Z
2019-10-28T03:22:28Z,42.805,6.029,13.2991,4.59979,2469.844,2019-10-28T05:22:55Z
2019-10-28T03:25:31Z,42.805,6.029,13.2988,4.59988,2469.867,2019-10-28T05:25:58Z
2019-10-28T03:28:35Z,42.805,6.029,13.2990,4.59981,2469.83,2019-10-28T05:29:01Z
2019-10-28T03:31:38Z,42.805,6.029,13.2986,4.59983,2469.867,2019-10-28T05:32:04Z
2019-10-28T03:34:41Z,42.805,6.029,13.2986,4.59991,2469.876,2019-10-28T05:35:07Z
2019-10-28T03:37:44Z,42.805,6.029,13.2990,4.59978,2469.83,2019-10-28T05:38:11Z
2019-10-28T03:40:47Z,42.805,6.029,13.3004,4.59988,2469.876,2019-10-28T05:41:14Z
2019-10-28T03:43:51Z,42.805,6.029,13.2991,4.59976,2469.876,2019-10-28T05:44:17Z
2019-10-28T03:46:54Z,42.805,6.029,13.2987,4.59987,2469.853,2019-10-28T05:47:20Z
2019-10-28T03:49:57Z,42.805,6.029,13.2989,4.59994,2469.853,2019-10-28T05:50:24Z
2019-10-28T03:53:01Z,42.805,6.029,13.2991,4.59975,2469.89,2019-10-28T05:53:27Z
2019-10-28T03:56:04Z,42.805,6.029,13.2998,4.59992,2469.867,2019-10-28T05:56:30Z
2019-10-28T03:59:07Z,42.805,6.029,13.2995,4.59978,2469.876,2019-10-28T05:59:33Z
2019-10-28T04:02:10Z,42.805,6.029,13.2989,4.59977,2469.89,2019-10-28T06:02:37Z
2019-10-28T04:05:14Z,42.805,6.029,13.2986,4.59986,2469.89,2019-10-28T06:05:40Z
2019-10-28T04:08:17Z,42.805,6.029,13.2982,4.59981,2469.876,2019-10-28T06:08:43Z
2019-10-28T04:11:20Z,42.805,6.029,13.2982,4.59975,2469.914,2019-10-28T06:11:46Z
2019-10-28T04:14:23Z,42.805,6.029,13.2992,4.59976,2469.89,2019-10-28T06:14:50Z
2019-10-28T04:17:27Z,42.805,6.029,13.2981,4.59970,2469.9,2019-10-28T06:17:53Z
2019-10-28T04:20:30Z,42.805,6.029,13.2982,4.59983,2469.937,2019-10-28T06:20:56Z
2019-10-28T04:23:33Z,42.805,6.029,13.2994,4.59975,2469.9,2019-10-28T06:23:59Z
2019-10-28T04:26:36Z,42.805,6.029,13.2983,4.59978,2469.914,2019-10-28T06:27:03Z
2019-10-28T04:29:39Z,42.805,6.029,13.2988,4.59976,2469.937,2019-10-28T06:30:06Z
2019-10-28T04:32:43Z,42.805,6.029,13.2980,4.59973,2469.923,2019-10-28T06:33:09Z
2019-10-28T04:35:46Z,42.805,6.029,13.2983,4.59979,2469.9,2019-10-28T06:36:12Z
2019-10-28T04:38:49Z,42.805,6.029,13.2979,4.59977,2469.937,2019-10-28T06:39:15Z
2019-10-28T04:41:52Z,42.805,6.029,13.2991,4.59983,2469.914,2019-10-28T06:42:19Z
2019-10-28T04:44:55Z,42.805,6.029,13.2982,4.59979,2469.937,2019-10-28T06:45:22Z
2019-10-28T04:47:59Z,42.805,6.029,13.2982,4.59978,2469.96,2019-10-28T06:48:25Z
2019-10-28T04:51:02Z,42.805,6.029,13.2993,4.59982,2469.947,2019-10-28T06:51:28Z
2019-10-28T04:54:05Z,42.805,6.029,13.2985,4.59973,2469.947,2019-10-28T06:54:31Z
2019-10-28T04:57:08Z,42.805,6.029,13.2984,4.59978,2469.937,2019-10-28T06:57:35Z
2019-10-28T05:00:11Z,42.805,6.029,13.2984,4.59983,2469.947,2019-10-28T07:00:38Z
2019-10-28T05:03:15Z,42.805,6.029,13.2991,4.59981,2469.947,2019-10-28T07:03:41Z
2019-10-28T05:06:18Z,42.805,6.029,13.2980,4.59978,2469.96,2019-10-28T07:06:44Z
2019-10-28T05:09:21Z,42.805,6.029,13.2979,4.59976,2469.984,2019-10-28T07:09:47Z
2019-10-28T05:12:24Z,42.805,6.029,13.2991,4.59982,2469.96,2019-10-28T07:12:51Z
2019-10-28T05:15:27Z,42.805,6.029,13.2979,4.59978,2469.97,2019-10-28T07:15:54Z
2019-10-28T05:18:31Z,42.805,6.029,13.2987,4.59979,2469.96,2019-10-28T07:18:57Z
2019-10-28T05:21:34Z,42.805,6.029,13.2984,4.59983,2469.96,2019-10-28T07:22:00Z
2019-10-28T05:24:37Z,42.805,6.029,13.2983,4.59990,2469.984,2019-10-28T07:25:04Z
2019-10-28T05:27:40Z,42.805,6.029,13.2983,4.59982,2469.984,2019-10-28T07:28:07Z
2019-10-28T05:30:44Z,42.805,6.029,13.2980,4.59972,2470.007,2019-10-28T07:31:10Z
2019-10-28T05:33:47Z,42.805,6.029,13.2976,4.59979,2470.017,2019-10-28T07:34:13Z
2019-10-28T05:36:50Z,42.805,6.029,13.2982,4.59979,2469.993,2019-10-28T07:37:16Z
2019-10-28T05:39:53Z,42.805,6.029,13.2985,4.59978,2470.04,2019-10-28T07:40:20Z
2019-10-28T05:42:56Z,42.805,6.029,13.2983,4.59980,2470.03,2019-10-28T07:43:23Z
2019-10-28T05:46:00Z,42.805,6.029,13.2993,4.59973,2470.007,2019-10-28T07:46:26Z
2019-10-28T05:49:03Z,42.805,6.029,13.2986,4.59983,2469.984,2019-10-28T07:49:29Z
2019-10-28T05:52:06Z,42.805,6.029,13.2982,4.59985,2470.007,2019-10-28T07:52:32Z
2019-10-28T05:55:09Z,42.805,6.029,13.2976,4.59984,2470.007,2019-10-28T07:55:36Z
2019-10-28T05:58:12Z,42.805,6.029,13.2983,4.59981,2470.007,2019-10-28T07:58:39Z
2019-10-28T06:01:16Z,42.805,6.029,13.2984,4.59981,2470.017,2019-10-28T08:01:42Z
2019-10-28T06:04:19Z,42.805,6.029,13.2988,4.59982,2470.007,2019-10-28T08:04:45Z
2019-10-28T06:07:22Z,42.805,6.029,13.2980,4.59979,2470.053,2019-10-28T08:07:48Z
2019-10-28T06:10:25Z,42.805,6.029,13.2988,4.59989,2469.993,2019-10-28T08:10:52Z
2019-10-28T06:13:29Z,42.805,6.029,13.2985,4.59986,2470.017,2019-10-28T08:13:55Z
2019-10-28T06:16:32Z,42.805,6.029,13.2986,4.59993,2470.04,2019-10-28T08:16:58Z
2019-10-28T06:19:35Z,42.805,6.029,13.3009,4.59978,2470.053,2019-10-28T08:20:02Z
2019-10-28T06:22:38Z,42.805,6.029,13.2984,4.59983,2470.017,2019-10-28T08:23:05Z
2019-10-28T06:25:42Z,42.805,6.029,13.2990,4.59990,2470.053,2019-10-28T08:26:08Z
2019-10-28T06:28:45Z,42.805,6.029,13.2989,4.59996,2470.017,2019-10-28T08:29:11Z
2019-10-28T06:31:48Z,42.805,6.029,13.2989,4.59981,2470.04,2019-10-28T08:32:14Z
2019-10-28T06:34:51Z,42.805,6.029,13.2979,4.59973,2470.017,2019-10-28T08:35:18Z
2019-10-28T06:37:54Z,42.805,6.029,13.2994,4.59978,2470.017,2019-10-28T08:38:21Z
2019-10-28T06:40:58Z,42.805,6.029,13.2986,4.59979,2470.053,2019-10-28T08:41:24Z
2019-10-28T06:44:01Z,42.805,6.029,13.2983,4.59988,2470.04,2019-10-28T08:44:27Z
2019-10-28T06:47:04Z,42.805,6.029,13.2986,4.59984,2470.04,2019-10-28T08:47:30Z
2019-10-28T06:50:07Z,42.805,6.029,13.2979,4.59986,2470.017,2019-10-28T08:50:34Z
2019-10-28T06:53:10Z,42.805,6.029,13.2984,4.59989,2470.017,2019-10-28T08:53:37Z
2019-10-28T06:56:14Z,42.805,6.029,13.2986,4.59981,2470.007,2019-10-28T08:56:40Z
2019-10-28T06:59:17Z,42.805,6.029,13.2986,4.59992,2470.04,2019-10-28T08:59:43Z
2019-10-28T07:02:20Z,42.805,6.029,13.2994,4.59974,2470.03,2019-10-28T09:02:46Z
2019-10-28T07:05:23Z,42.805,6.029,13.2984,4.59986,2470.077,2019-10-28T09:05:50Z
2019-10-28T07:08:26Z,42.805,6.029,13.2990,4.59982,2470.04,2019-10-28T09:08:53Z
2019-10-28T07:11:30Z,42.805,6.029,13.2982,4.59982,2470.017,2019-10-28T09:11:56Z
2019-10-28T07:14:33Z,42.805,6.029,13.2981,4.59980,2470.053,2019-10-28T09:14:59Z
2019-10-28T07:17:36Z,42.805,6.029,13.2993,4.59986,2470.017,2019-10-28T09:18:02Z
2019-10-28T07:20:39Z,42.805,6.029,13.2984,4.59989,2470.017,2019-10-28T09:21:06Z
2019-10-28T07:23:42Z,42.805,6.029,13.2995,4.59989,2469.993,2019-10-28T09:24:09Z
2019-10-28T07:26:46Z,42.805,6.029,13.2989,4.59981,2470.007,2019-10-28T09:27:12Z
2019-10-28T07:29:49Z,42.805,6.029,13.2991,4.59989,2470.04,2019-10-28T09:30:15Z
2019-10-28T07:32:52Z,42.805,6.029,13.2998,4.59995,2470.03,2019-10-28T09:33:18Z
2019-10-28T07:35:55Z,42.805,6.029,13.2997,4.59991,2470.04,2019-10-28T09:36:22Z
2019-10-28T07:38:58Z,42.805,6.029,13.2997,4.59986,2470.03,2019-10-28T09:39:25Z
2019-10-28T07:42:02Z,42.805,6.029,13.2995,4.59990,2470.03,2019-10-28T09:42:28Z
2019-10-28T07:45:05Z,42.805,6.029,13.3002,4.59994,2470.04,2019-10-28T09:45:31Z
2019-10-28T07:48:08Z,42.805,6.029,13.2996,4.59989,2470.017,2019-10-28T09:48:35Z
2019-10-28T07:51:11Z,42.805,6.029,13.3004,4.59981,2470.053,2019-10-28T09:51:38Z
2019-10-28T07:54:15Z,42.805,6.029,13.2992,4.59996,2470.007,2019-10-28T09:54:41Z
2019-10-28T07:57:18Z,42.805,6.029,13.2993,4.59988,2469.993,2019-10-28T09:57:44Z
2019-10-28T08:00:21Z,42.805,6.029,13.2985,4.59986,2470.03,2019-10-28T10:00:47Z
2019-10-28T08:03:24Z,42.805,6.029,13.2993,4.59988,2469.993,2019-10-28T10:03:51Z
2019-10-28T08:06:27Z,42.805,6.029,13.2990,4.59996,2470.053,2019-10-28T10:06:54Z
2019-10-28T08:09:31Z,42.805,6.029,13.2983,4.59986,2470.03,2019-10-28T10:09:57Z
2019-10-28T08:12:34Z,42.805,6.029,13.2980,4.59978,2470.007,2019-10-28T10:13:00Z
2019-10-28T08:15:37Z,42.805,6.029,13.2986,4.59990,2470.017,2019-10-28T10:16:03Z
2019-10-28T08:18:40Z,42.805,6.029,13.2983,4.59988,2470.017,2019-10-28T10:19:07Z
2019-10-28T08:21:43Z,42.805,6.029,13.2992,4.59994,2470.017,2019-10-28T10:22:10Z
2019-10-28T08:24:47Z,42.805,6.029,13.2993,4.59983,2470.007,2019-10-28T10:25:13Z
2019-10-28T08:27:50Z,42.805,6.029,13.2999,4.59996,2470.03,2019-10-28T10:28:16Z
2019-10-28T08:30:53Z,42.805,6.029,13.3002,4.59991,2470.007,2019-10-28T10:31:19Z
2019-10-28T08:33:56Z,42.805,6.029,13.2986,4.59986,2470.017,2019-10-28T10:34:23Z
2019-10-28T08:37:00Z,42.805,6.029,13.2985,4.59985,2470.03,2019-10-28T10:37:26Z
2019-10-28T08:40:03Z,42.805,6.029,13.2992,4.59985,2470.03,2019-10-28T10:40:29Z
2019-10-28T08:43:06Z,42.805,6.029,13.2990,4.59986,2470.03,2019-10-28T10:43:32Z
2019-10-28T08:46:09Z,42.805,6.029,13.2987,4.59997,2470.03,2019-10-28T10:46:36Z
2019-10-28T08:49:12Z,42.805,6.029,13.2989,4.59978,2469.993,2019-10-28T10:49:39Z
2019-10-28T08:52:16Z,42.805,6.029,13.2988,4.59991,2469.993,2019-10-28T10:52:42Z
2019-10-28T08:55:19Z,42.805,6.029,13.2986,4.59986,2470.03,2019-10-28T10:55:45Z
2019-10-28T08:58:22Z,42.805,6.029,13.2983,4.59989,2469.993,2019-10-28T10:58:48Z
2019-10-28T09:01:25Z,42.805,6.029,13.2991,4.59987,2470.007,2019-10-28T11:01:52Z
2019-10-28T09:04:28Z,42.805,6.029,13.3006,4.59982,2469.993,2019-10-28T11:04:55Z
2019-10-28T09:07:32Z,42.805,6.029,13.2995,4.59976,2469.97,2019-10-28T11:07:58Z
2019-10-28T09:10:35Z,42.805,6.029,13.2992,4.59991,2469.947,2019-10-28T11:11:01Z
2019-10-28T09:13:38Z,42.805,6.029,13.3005,4.59976,2470.03,2019-10-28T11:14:04Z
2019-10-28T09:16:41Z,42.805,6.029,13.2998,4.59984,2469.984,2019-10-28T11:17:08Z
2019-10-28T09:19:44Z,42.805,6.029,13.2997,4.59984,2470.007,2019-10-28T11:20:11Z
2019-10-28T09:22:48Z,42.805,6.029,13.2986,4.59982,2469.96,2019-10-28T11:23:14Z
2019-10-28T09:25:51Z,42.805,6.029,13.2982,4.59981,2469.96,2019-10-28T11:26:17Z
2019-10-28T09:28:54Z,42.805,6.029,13.2988,4.59986,2470.007,2019-10-28T11:29:21Z
2019-10-28T09:31:57Z,42.805,6.029,13.2991,4.59991,2469.984,2019-10-28T11:32:24Z
2019-10-28T09:35:01Z,42.805,6.029,13.3001,4.59987,2469.97,2019-10-28T11:35:27Z
2019-10-28T09:38:04Z,42.805,6.029,13.2994,4.59983,2469.984,2019-10-28T11:38:30Z
2019-10-28T09:41:07Z,42.805,6.029,13.3002,4.59983,2469.947,2019-10-28T11:41:33Z
2019-10-28T09:44:10Z,42.805,6.029,13.2998,4.59989,2470.007,2019-10-28T11:44:37Z
2019-10-28T09:47:14Z,42.805,6.029,13.2991,4.59985,2469.96,2019-10-28T11:47:40Z
2019-10-28T09:50:17Z,42.805,6.029,13.3008,4.59994,2469.947,2019-10-28T11:50:43Z
2019-10-28T09:53:20Z,42.805,6.029,13.2990,4.59998,2469.96,2019-10-28T11:53:46Z
2019-10-28T09:56:23Z,42.805,6.029,13.2983,4.59980,2469.993,2019-10-28T11:56:50Z
2019-10-28T09:59:26Z,42.805,6.029,13.2996,4.59981,2469.984,2019-10-28T11:59:53Z
2019-10-28T10:02:30Z,42.805,6.029,13.3003,4.59975,2469.937,2019-10-28T12:02:56Z
2019-10-28T10:05:33Z,42.805,6.029,13.2991,4.59985,2469.97,2019-10-28T12:05:59Z
2019-10-28T10:08:36Z,42.805,6.029,13.2990,4.59991,2469.984,2019-10-28T12:09:02Z
2019-10-28T10:11:39Z,42.805,6.029,13.2990,4.59983,2469.937,2019-10-28T12:12:06Z
2019-10-28T10:14:42Z,42.805,6.029,13.2990,4.59981,2469.923,2019-10-28T12:15:09Z
2019-10-28T10:17:46Z,42.805,6.029,13.2993,4.59994,2469.937,2019-10-28T12:18:12Z
2019-10-28T10:20:49Z,42.805,6.029,13.2986,4.59990,2469.96,2019-10-28T12:21:15Z
2019-10-28T10:23:52Z,42.805,6.029,13.2986,4.59996,2469.947,2019-10-28T12:24:18Z
2019-10-28T10:26:55Z,42.805,6.029,13.3006,4.59989,2469.947,2019-10-28T12:27:22Z
2019-10-28T10:29:59Z,42.805,6.029,13.2985,4.59982,2469.914,2019-10-28T12:30:25Z
2019-10-28T10:33:02Z,42.805,6.029,13.3004,4.59990,2469.923,2019-10-28T12:33:28Z
2019-10-28T10:36:05Z,42.805,6.029,13.2996,4.59986,2469.937,2019-10-28T12:36:32Z
2019-10-28T10:39:09Z,42.805,6.029,13.3000,4.59993,2469.923,2019-10-28T12:39:35Z
2019-10-28T10:42:12Z,42.805,6.029,13.3007,4.59992,2469.863,2019-10-28T12:42:38Z
2019-10-28T10:45:15Z,42.805,6.029,13.2998,4.59980,2469.9,2019-10-28T12:45:41Z
2019-10-28T10:48:18Z,42.805,6.029,13.2998,4.59982,2469.923,2019-10-28T12:48:45Z
2019-10-28T10:51:21Z,42.805,6.029,13.2990,4.59991,2469.923,2019-10-28T12:51:48Z
2019-10-28T10:54:25Z,42.805,6.029,13.2975,4.59991,2469.914,2019-10-28T12:54:51Z
2019-10-28T10:57:28Z,42.805,6.029,13.2982,4.59986,2469.876,2019-10-28T12:57:54Z
2019-10-28T11:00:31Z,42.805,6.029,13.2992,4.59980,2469.914,2019-10-28T13:00:57Z
2019-10-28T11:03:34Z,42.805,6.029,13.2982,4.59990,2469.876,2019-10-28T13:04:01Z
2019-10-28T11:06:37Z,42.805,6.029,13.2983,4.59981,2469.937,2019-10-28T13:07:04Z
2019-10-28T11:09:41Z,42.805,6.029,13.2975,4.59984,2469.914,2019-10-28T13:10:07Z
2019-10-28T11:12:44Z,42.805,6.029,13.2994,4.59993,2469.867,2019-10-28T13:13:10Z
2019-10-28T11:15:47Z,42.805,6.029,13.3003,4.59988,2469.89,2019-10-28T13:16:13Z
2019-10-28T11:18:50Z,42.805,6.029,13.2989,4.59985,2469.876,2019-10-28T13:19:17Z
2019-10-28T11:21:54Z,42.805,6.029,13.2995,4.59988,2469.89,2019-10-28T13:22:20Z
2019-10-28T11:24:57Z,42.805,6.029,13.2987,4.59989,2469.876,2019-10-28T13:25:23Z
2019-10-28T11:28:00Z,42.805,6.029,13.2990,4.59982,2469.89,2019-10-28T13:28:26Z
2019-10-28T11:31:03Z,42.805,6.029,13.3005,4.59983,2469.853,2019-10-28T13:31:30Z
2019-10-28T11:34:06Z,42.805,6.029,13.3000,4.59986,2469.867,2019-10-28T13:34:33Z
2019-10-28T11:37:10Z,42.805,6.029,13.2993,4.59990,2469.914,2019-10-28T13:37:36Z
2019-10-28T11:40:13Z,42.805,6.029,13.2991,4.60003,2469.89,2019-10-28T13:40:39Z
2019-10-28T11:43:16Z,42.805,6.029,13.2997,4.59985,2469.867,2019-10-28T13:43:42Z
2019-10-28T11:46:19Z,42.805,6.029,13.2992,4.59985,2469.867,2019-10-28T13:46:46Z
2019-10-28T11:49:23Z,42.805,6.029,13.2987,4.59984,2469.867,2019-10-28T13:49:49Z
2019-10-28T11:52:26Z,42.805,6.029,13.2996,4.59996,2469.89,2019-10-28T13:52:52Z
2019-10-28T11:55:29Z,42.805,6.029,13.2988,4.59988,2469.867,2019-10-28T13:55:55Z
2019-10-28T11:58:32Z,42.805,6.029,13.2981,4.59980,2469.89,2019-10-28T13:58:59Z
2019-10-28T12:01:35Z,42.805,6.029,13.2990,4.59985,2469.876,2019-10-28T14:02:02Z
2019-10-28T12:04:39Z,42.805,6.029,13.2991,4.59978,2469.839,2019-10-28T14:05:05Z
2019-10-28T12:07:42Z,42.805,6.029,13.2977,4.59985,2469.876,2019-10-28T14:08:08Z
2019-10-28T12:10:45Z,42.805,6.029,13.2980,4.59979,2469.867,2019-10-28T14:11:12Z
2019-10-28T12:13:48Z,42.805,6.029,13.2982,4.59996,2469.867,2019-10-28T14:14:15Z
2019-10-28T12:16:52Z,42.805,6.029,13.2993,4.60003,2469.821,2019-10-28T14:17:18Z
2019-10-28T12:19:55Z,42.805,6.029,13.2993,4.60001,2469.853,2019-10-28T14:20:21Z
2019-10-28T12:22:58Z,42.805,6.029,13.2995,4.60015,2469.83,2019-10-28T14:23:24Z
2019-10-28T12:26:01Z,42.805,6.029,13.3021,4.59988,2469.806,2019-10-28T14:26:28Z
2019-10-28T12:29:05Z,42.805,6.029,13.2971,4.59987,2469.821,2019-10-28T14:29:31Z
2019-10-28T12:32:08Z,42.805,6.029,13.2980,4.59979,2469.844,2019-10-28T14:32:34Z
2019-10-28T12:35:11Z,42.805,6.029,13.2985,4.59992,2469.821,2019-10-28T14:35:37Z
2019-10-28T12:38:14Z,42.805,6.029,13.2983,4.60003,2469.821,2019-10-28T14:38:41Z
2019-10-28T12:41:18Z,42.805,6.029,13.2982,4.59980,2469.867,2019-10-28T14:41:44Z
2019-10-28T12:44:21Z,42.805,6.029,13.2992,4.59996,2469.821,2019-10-28T14:44:47Z
2019-10-28T12:47:24Z,42.805,6.029,13.3004,4.59988,2469.821,2019-10-28T14:47:50Z
2019-10-28T12:50:27Z,42.805,6.029,13.3001,4.59988,2469.806,2019-10-28T14:50:54Z
2019-10-28T12:53:31Z,42.805,6.029,13.2996,4.59986,2469.783,2019-10-28T14:53:57Z
2019-10-28T12:56:34Z,42.805,6.029,13.2986,4.59987,2469.806,2019-10-28T14:57:00Z
2019-10-28T12:59:37Z,42.805,6.029,13.2972,4.59998,2469.783,2019-10-28T15:00:03Z
2019-10-28T13:02:40Z,42.805,6.029,13.3001,4.59999,2469.867,2019-10-28T15:03:07Z
2019-10-28T13:05:43Z,42.805,6.029,13.2993,4.60009,2469.844,2019-10-28T15:06:10Z
2019-10-28T13:08:47Z,42.805,6.029,13.3000,4.59990,2469.821,2019-10-28T15:09:13Z
2019-10-28T13:11:50Z,42.805,6.029,13.3004,4.60000,2469.821,2019-10-28T15:12:16Z
2019-10-28T13:14:53Z,42.805,6.029,13.2989,4.59985,2469.806,2019-10-28T15:15:19Z
2019-10-28T13:17:56Z,42.805,6.029,13.2979,4.59983,2469.844,2019-10-28T15:18:23Z
2019-10-28T13:20:59Z,42.805,6.029,13.2986,4.59981,2469.797,2019-10-28T15:21:26Z
2019-10-28T13:24:03Z,42.805,6.029,13.2980,4.60000,2469.821,2019-10-28T15:24:29Z
2019-10-28T13:27:06Z,42.805,6.029,13.3013,4.59983,2469.844,2019-10-28T15:27:32Z
2019-10-28T13:30:09Z,42.805,6.029,13.2982,4.59988,2469.844,2019-10-28T15:30:35Z
2019-10-28T13:33:12Z,42.805,6.029,13.2990,4.59998,2469.821,2019-10-28T15:33:39Z
2019-10-28T13:36:16Z,42.805,6.029,13.2988,4.59979,2469.783,2019-10-28T15:36:42Z
2019-10-28T13:39:19Z,42.805,6.029,13.2982,4.59976,2469.806,2019-10-28T15:39:45Z
2019-10-28T13:42:22Z,42.805,6.029,13.2985,4.60006,2469.821,2019-10-28T15:42:48Z
2019-10-28T13:45:25Z,42.805,6.029,13.2979,4.60006,2469.821,2019-10-28T15:45:52Z
2019-10-28T13:48:28Z,42.805,6.029,13.3004,4.59991,2469.83,2019-10-28T15:48:55Z
2019-10-28T13:51:32Z,42.805,6.029,13.2993,4.60009,2469.797,2019-10-28T15:51:58Z
2019-10-28T13:54:35Z,42.805,6.029,13.2982,4.59972,2469.821,2019-10-28T15:55:01Z
2019-10-28T13:57:38Z,42.805,6.029,13.2985,4.60011,2469.783,2019-10-28T15:58:05Z
2019-10-28T14:00:41Z,42.805,6.029,13.2974,4.60011,2469.806,2019-10-28T16:01:08Z
2019-10-28T14:03:45Z,42.805,6.029,13.3001,4.60040,2469.783,2019-10-28T16:04:11Z
2019-10-28T14:06:48Z,42.805,6.029,13.2994,4.59999,2469.821,2019-10-28T16:07:14Z
2019-10-28T14:09:51Z,42.805,6.029,13.2977,4.60010,2469.806,2019-10-28T16:10:17Z
2019-10-28T14:12:54Z,42.805,6.029,13.2994,4.60007,2469.83,2019-10-28T16:13:21Z
2019-10-28T14:15:57Z,42.805,6.029,13.3005,4.60010,2469.844,2019-10-28T16:16:24Z
2019-10-28T14:19:01Z,42.805,6.029,13.3004,4.60003,2469.844,2019-10-28T16:19:27Z
2019-10-28T14:22:04Z,42.805,6.029,13.2990,4.59989,2469.83,2019-10-28T16:22:30Z
2019-10-28T14:25:07Z,42.805,6.029,13.2990,4.60014,2469.821,2019-10-28T16:25:34Z
2019-10-28T14:28:11Z,42.805,6.029,13.3006,4.59982,2469.821,2019-10-28T16:28:37Z
2019-10-28T14:31:14Z,42.805,6.029,13.2989,4.60011,2469.821,2019-10-28T16:31:40Z
2019-10-28T14:34:17Z,42.805,6.029,13.3008,4.59995,2469.821,2019-10-28T16:34:43Z
2019-10-28T14:37:20Z,42.805,6.029,13.2993,4.60012,2469.83,2019-10-28T16:37:47Z
2019-10-28T14:40:24Z,42.805,6.029,13.2989,4.60010,2469.821,2019-10-28T16:40:50Z
2019-10-28T14:43:27Z,42.805,6.029,13.2996,4.59992,2469.821,2019-10-28T16:43:53Z
2019-10-28T14:46:30Z,42.805,6.029,13.2976,4.60001,2469.806,2019-10-28T16:46:56Z
2019-10-28T14:49:33Z,42.805,6.029,13.2985,4.59976,2469.83,2019-10-28T16:50:00Z
2019-10-28T14:52:36Z,42.805,6.029,13.2976,4.59992,2469.806,2019-10-28T16:53:03Z
2019-10-28T14:55:40Z,42.805,6.029,13.2990,4.59986,2469.806,2019-10-28T16:56:06Z
2019-10-28T14:58:43Z,42.805,6.029,13.3001,4.59999,2469.83,2019-10-28T16:59:09Z
2019-10-28T15:01:46Z,42.805,6.029,13.2992,4.59979,2469.821,2019-10-28T17:02:13Z